Newark, NJ

10:28 PM EDT on October 22, 2019 (GMT -0400)
Newark International

Weather History for KEWR - May, 2019

Change the Weather History Date:

Tuesday, May 21, 2019

  Actual Average Record
Temperature  
Mean Temperature 66 °F 64 °F  
Max Temperature 73 °F 74 °F 96 °F (1996)
Min Temperature 58 °F 55 °F 42 °F (1950)
Degree Days  
Heating Degree Days 0 3  
Month to date heating degree days 104 111  
Since 1 July heating degree days 4698 4831  
Cooling Degree Days 1 2  
Month to date cooling degree days 30 29  
Year to date cooling degree days 45 41  
Growing Degree Days 16 (Base 50)    
Moisture  
Dew Point 38 °F    
Average Humidity 37    
Maximum Humidity 54    
Minimum Humidity 20    
Precipitation  
Precipitation 0.00 in 0.14 in 1.62 in (2012)
Month to date precipitation 4.73 2.66  
Year to date precipitation 20.38 17.46  
Snow  
Snow 0.00 in 0.00 in 0.00 in (2002)
Month to date snowfall 0.0 0.0  
Since 1 July snowfall 22.0 28.5  
Snow Depth 0.00 in    
Sea Level Pressure  
Sea Level Pressure 29.94 in    
Wind  
Wind Speed 15 mph ()    
Max Wind Speed 31 mph    
Max Gust Speed 39 mph    
Visibility 10.0 miles    
Events      
T = Trace of Precipitation, MM = Missing Value Source: Averaged Metar Reports

Daily Weather History Graph

Daily Weather History Graph

Search for Another Location

Airport or City:

Astronomy

May. 21, 2019 Rise Set
Actual Time 5:34 AM EDT 8:12 PM EDT
Civil Twilight 5:03 AM EDT 8:44 PM EDT
Nautical Twilight 4:23 AM EDT 9:23 PM EDT
Astronomical Twilight 3:39 AM EDT 10:08 PM EDT
Moon 11:06 PM EDT (5/21) 7:48 AM EDT (5/21)
Length of Visible Light 15h 41m
Length of Day
14h 37m
Waning Gibbous, 91% of the Moon is Illuminated
May 21
Waning Gibbous
May 26
Last Quarter
Jun 3
New
Jun 10
First Quarter
Jun 17
Full

Hourly Weather History & Observations

Time (EDT) Temp. Dew Point Humidity Pressure Visibility Wind Dir Wind Speed Gust Speed Precip Events Conditions
12:51 AM 68.0 °F 50.0 °F 52% 29.81 in 10.0 mi NW 17.3 mph 31.1 mph N/A   Partly Cloudy
1:51 AM 66.0 °F 48.9 °F 54% 29.81 in 10.0 mi NW 13.8 mph - N/A   Partly Cloudy
2:51 AM 64.0 °F 46.0 °F 52% 29.84 in 10.0 mi WNW 11.5 mph 23.0 mph N/A   Partly Cloudy
3:51 AM 62.1 °F 44.1 °F 52% 29.85 in 10.0 mi NW 15.0 mph - N/A   Partly Cloudy
4:51 AM 61.0 °F 43.0 °F 52% 29.86 in 10.0 mi WNW 15.0 mph 25.3 mph N/A   Partly Cloudy
5:51 AM 59.0 °F 39.9 °F 49% 29.88 in 10.0 mi WNW 12.7 mph 28.8 mph N/A   Mostly Cloudy
6:51 AM 60.1 °F 41.0 °F 49% 29.91 in 10.0 mi NW 16.1 mph 21.9 mph N/A   Mostly Cloudy
7:51 AM 59.0 °F 37.0 °F 44% 29.94 in 10.0 mi NW 23.0 mph 34.5 mph N/A   Scattered Clouds
8:51 AM 59.0 °F 37.9 °F 46% 29.94 in 10.0 mi NW 20.7 mph 31.1 mph N/A   Partly Cloudy
9:51 AM 61.0 °F 35.1 °F 38% 29.95 in 10.0 mi NW 21.9 mph 28.8 mph N/A   Partly Cloudy
10:51 AM 63.0 °F 37.0 °F 38% 29.96 in 10.0 mi NW 19.6 mph 31.1 mph N/A   Partly Cloudy
11:51 AM 66.0 °F 37.0 °F 34% 29.95 in 10.0 mi NW 19.6 mph - N/A   Scattered Clouds
12:51 PM 66.9 °F 36.0 °F 32% 29.94 in 10.0 mi WNW 20.7 mph 31.1 mph N/A   Mostly Cloudy
1:51 PM 69.1 °F 37.9 °F 32% 29.92 in 10.0 mi WNW 19.6 mph 24.2 mph N/A   Mostly Cloudy
2:51 PM 73.0 °F 37.9 °F 28% 29.91 in 10.0 mi NW 12.7 mph 26.5 mph N/A   Scattered Clouds
3:51 PM 73.9 °F 36.0 °F 25% 29.91 in 10.0 mi NW 25.3 mph 31.1 mph N/A   Partly Cloudy
4:51 PM 73.0 °F 33.1 °F 23% 29.92 in 10.0 mi NNW 24.2 mph 31.1 mph N/A   Partly Cloudy
5:51 PM 72.0 °F 30.9 °F 22% 29.95 in 10.0 mi NNW 23.0 mph 29.9 mph N/A   Scattered Clouds
6:51 PM 71.1 °F 28.9 °F 21% 29.96 in 10.0 mi NW 16.1 mph 29.9 mph N/A   Mostly Cloudy
7:51 PM 69.1 °F 28.9 °F 22% 30.00 in 10.0 mi NW 16.1 mph 26.5 mph N/A   Mostly Cloudy
8:51 PM 66.0 °F 33.1 °F 29% 30.05 in 10.0 mi North 16.1 mph 27.6 mph N/A   Mostly Cloudy
9:51 PM 64.0 °F 34.0 °F 33% 30.08 in 10.0 mi NNW 15.0 mph 24.2 mph N/A   Scattered Clouds
10:51 PM 63.0 °F 34.0 °F 34% 30.11 in 10.0 mi NNW 15.0 mph 20.7 mph N/A   Scattered Clouds
11:51 PM 61.0 °F 34.0 °F 36% 30.11 in 10.0 mi NNW 13.8 mph - N/A   Mostly Cloudy